Regional Weather Roundup
Issued by NWS

Home | Current Version | Previous Version | Graphics & Text | Print | Product List | Glossary On
Versions: 1 2 3 4 5 6 7 8 9 10 11 12 13 14 15 16 17 18 19 20 21 22 23 24 25 26 27 28 29 30 31 32 33 34 35 36 37 38 39 40 41 42 43 44 45 46 47 48 49 50
000
ASUS45 KSLC 010510
RWRUT

UTAH REGIONAL WEATHER ROUNDUP
NATIONAL WEATHER SERVICE SALT LAKE CITY UT
1100 PM MDT TUE MAR 31 2015

UTZ001>011-023>025-010600-

NORTHERN UTAH

CITY           SKY/WX    TMP DP  RH WIND       PRES   REMARKS
BRIGHAM CITY   MOCLDY    57  29  34 N28       29.78R
HILL AFB       PTCLDY    62  24  23 SW12      29.79F
LOGAN          CLEAR     61  29  29 W8        29.76R
OGDEN          CLOUDY    64  28  25 S8        29.76F
PROVO AIRPORT  CLOUDY    63  36  36 SW6       29.80S
SALT LAKE CITY CLOUDY    64  31  28 S8        29.77S
VERNAL         PTCLDY    54  22  28 CALM      29.78S
WENDOVER       PTCLDY    54  27  35 NW22G31   29.85R
HEBER CITY     CLOUDY    61  27  27 SW14G35   29.84F
WEST JORDAN    CLOUDY    61  36  39 W8        29.80F

$$

UTZ012>022-026-027-010600-

SOUTHERN/CENTRAL UTAH

CITY           SKY/WX    TMP DP  RH WIND       PRES   REMARKS
BLANDING       MOCLDY    55  22  27 NW6       30.01R
BRYCE CANYON   CLEAR     33  23  66 CALM      30.03F
CEDAR CITY     CLEAR     53  22  29 S13       29.92S
DELTA          MOCLDY    64  19  17 S9G17     29.81F
HANKSVILLE     PTCLDY    64  21  19 SW8       29.84S
MILFORD        CLEAR     55  21  26 S16       29.85F
MOAB/CYNLANDS  CLEAR     63  18  17 SW15      29.79S
PRICE          CLEAR     50  16  25 N3        29.85S
ST GEORGE      CLOUDY    68  23  18 SE5       29.82R
KANAB          CLEAR     54  28  37 W5        29.96S

$$

REGIONAL REPORTS     COLORADO/ARIZONA

CITY           SKY/WX    TMP DP  RH WIND       PRES   REMARKS
CRAIG, CO      CLOUDY    50  26  39 CALM      29.86F
GRAND JUNCTION MOCLDY    55  18  23 E7        29.82F
RIFLE          MOCLDY    54  25  32 CALM      29.86F
MONTROSE       MOCLDY    55  20  25 SE7       29.94S
CORTEZ         MOCLDY    50  24  36 E8        29.96S
PAGE, AZ       MOCLDY    70  22  16 SW7       29.89R
GRAND CANYON   MOCLDY    47  26  44 SW7       30.06S
KINGMAN        CLEAR     70  27  20 S15       29.88F
FLAGSTAFF      MOCLDY    52  24  33 SW7       30.10S

$$

REGIONAL REPORTS    NEVADA/IDAHO/WYOMING

CITY           SKY/WX    TMP DP  RH WIND       PRES   REMARKS
LAS VEGAS, NV  PTCLDY    77  19  11 S17G25    29.75R
ELY            CLOUDY    53  -2  10 NW13      29.96R
ELKO           PTCLDY    42  26  53 NW12      30.06R
POCATELLO, ID  CLOUDY    45  31  58 SW21G32   29.93R
BURLEY         CLOUDY    43  24  47 W20G33    29.98R
EVANSTON, WY   CLOUDY    48  30  49 W22G29    29.91R
ROCK SPRINGS   PTCLDY    48  16  27 SW8       29.82F
KEMMERER       PTCLDY    45  27  49 W18       29.87F

$$


USA.gov is the U.S. government's official web portal to all federal, state and local government web resources and services.